This is the latest recevied weather packets stored in our database for station/object K9RCP-24. If no packets are shown the sender has not sent any weather packets the latest 10 day(s).
| Time | Temp. | Humidity | Pressure | Rain* | Wind** | Luminosity | Snow |
|---|---|---|---|---|---|---|---|
| 1777727428 | 8.89° C | 83% | 1020.7 hPa | 0 mm | - | - | - |
| 1777727056 | 8.89° C | 83% | 1020.7 hPa | 0 mm | - | - | - |
| 1777726279 | 8.89° C | 84% | 1020.3 hPa | 0 mm | - | - | - |
| 1777725653 | 8.89° C | 84% | 1020.7 hPa | 0 mm | - | - | - |
| 1777725382 | 8.89° C | 84% | 1020.7 hPa | 0 mm | - | - | - |
| 1777724876 | 8.89° C | 84% | 1020.7 hPa | 0 mm | - | - | - |
| 1777724730 | 8.89° C | 84% | 1020.7 hPa | 0 mm | - | - | - |
| 1777723968 | 8.89° C | 83% | 1020.7 hPa | 0 mm | - | - | - |
| 1777723718 | 8.89° C | 82% | 1020.3 hPa | 0 mm | - | - | - |
| 1777723592 | 8.89° C | 82% | 1020.7 hPa | 0 mm | - | - | - |
| 1777723219 | 9.44° C | 83% | 1020.3 hPa | 0 mm | - | - | - |
| 1777720024 | 10° C | 82% | 1020.3 hPa | 0 mm | - | - | - |
| 1777718869 | 11.11° C | 71% | 1020.3 hPa | 0 mm | - | - | - |
| 1777718121 | 11.11° C | 68% | 1020 hPa | 0 mm | - | - | - |
| 1777717997 | 11.11° C | 69% | 1020 hPa | 0 mm | - | - | - |
| 1777716304 | 11.11° C | 81% | 1020 hPa | 0 mm | - | - | - |
| 1777716057 | 11.11° C | 79% | 1020 hPa | 0 mm | - | - | - |
| 1777715808 | 11.11° C | 79% | 1020 hPa | 0 mm | - | - | - |
| 1777714870 | 11.67° C | 78% | 1020.3 hPa | 0 mm | - | - | - |
| 1777714073 | 11.11° C | 81% | 1020.3 hPa | 0 mm | - | - | - |
| 1777712221 | 11.11° C | 81% | 1021 hPa | 0 mm | - | - | - |
| 1777710684 | 11.67° C | 81% | 1021.3 hPa | 0 mm | - | - | - |
| 1777710560 | 11.67° C | 81% | 1021.3 hPa | 0 mm | - | - | - |
| 1777710277 | 11.67° C | 81% | 1021.7 hPa | 0 mm | - | - | - |
| 1777709780 | 11.67° C | 80% | 1021.3 hPa | 0 mm | - | - | - |
* Rain latest hour (hover to see other rain measurements)
** Current wind speed in m/s (hover to see current wind gust speed)